Location: Arroyo de Majatayegua
(40.5633°N, 4.4541°W)
Time: 05:11:25
(UTC+00:00)

Daily predictions for brighter satellites

Satellite Brightness Start Highest point End
(mag) Time Altitude Azimuth Time Altitude Azimuth Time Altitude Azimuth
Okean 1-7 4.2 00:06:47 41° N 00:06:47 41° N 00:09:44 10° N
Meteor 1-13 Rocket 4.5 00:09:08 59° WNW 00:09:08 59° WNW 00:14:31 10° N
ALOS 2 3.9 00:11:03 35° NW 00:11:03 35° NW 00:13:49 10° NNW
USA 267 3.1 00:10:31 73° SW 00:10:32 73° SW 00:17:05 10° NW
Cosmos 923 Rocket 4.4 00:05:23 10° NNW 00:10:11 62° NE 00:10:11 62° NE
ATLAS CENTAUR R/B 4.4 00:10:11 10° N 00:13:08 16° NE 00:16:00 10° ENE
Cosmos 2266 Rocket 4.0 00:11:05 10° NNW 00:17:18 71° W 00:17:18 71° W
ADEOS Rocket 2.8 00:20:35 74° NW 00:20:35 74° NW 00:25:49 10° NNW
Cosmos 2237 4.4 00:26:11 65° WNW 00:26:11 65° WNW 00:31:48 10° NNE
Cosmos 1844 Rocket 2.9 00:21:51 10° NNW 00:27:18 64° ENE 00:27:18 64° ENE
Cosmos 1844 4.1 00:22:49 10° NNW 00:28:32 56° ENE 00:28:57 54° E
Cosmos 1937 Rocket 3.9 00:29:41 60° NE 00:29:41 60° NE 00:34:02 10° NNE
Cosmos 2112 Rocket 4.3 00:26:13 10° NNW 00:31:08 62° NE 00:31:08 62° NE
Cosmos 1680 Rocket 3.7 00:29:38 10° NNW 00:34:17 67° N 00:34:17 67° N
Cosmos 2219 Rocket 2.9 00:39:12 43° E 00:39:12 43° E 00:43:45 10° NE
Resurs 1-4 Rocket 4.2 00:36:06 10° NE 00:39:07 15° E 00:39:18 15° E
SL-16 R/B 3.3 00:38:30 33° WNW 00:39:23 35° WNW 00:44:33 10° N
SL-08 ROCKET BODY 4.3 00:35:01 10° N 00:40:56 73° E 00:40:56 73° E
COSMOS 2428 3.7 00:44:03 34° E 00:44:03 34° E 00:48:36 10° NE
ATLAS 3B R/B 2.8 00:40:52 10° NW 00:48:15 70° WSW 00:48:51 67° SSW
Cosmos 1898 Rocket 4.1 00:48:35 51° WNW 00:48:35 51° WNW 00:53:32 10° N
Meteor 1-22 Rocket 4.3 00:43:26 10° NNW 00:49:02 72° WNW 00:49:02 72° WNW
ASTEX 1 3.8 00:44:58 10° N 00:49:02 62° N 00:49:02 62° N
Cosmos 1626 4.3 00:55:39 23° NE 00:55:39 23° NE 00:57:21 10° NNE
Cosmos 2237 Rocket 4.2 00:57:20 16° ESE 00:57:45 16° E 01:01:00 10° ENE
Nadezhda 2 Rocket 4.3 00:54:13 10° N 01:00:26 88° W 01:00:39 84° SSW
Cosmos 2333 4.1 01:01:59 79° NNW 01:01:59 79° NNW 01:07:26 10° NNE
Cosmos 1553 Rocket 3.8 01:02:58 78° SE 01:03:15 80° E 01:09:24 10° N
Cosmos 1244 Rocket 4.3 00:58:50 10° N 01:05:12 84° W 01:05:34 79° SSW
ADEOS II 4.3 01:04:49 10° ENE 01:07:34 14° E 01:08:46 13° ESE
Cosmos 2221 Rocket 4.3 01:10:52 52° NNE 01:10:52 52° NNE 01:14:14 10° N
Cosmos 2360 Rocket 3.0 01:13:37 37° WNW 01:14:13 39° WNW 01:19:29 10° N
Okean 1 Rocket 4.3 01:12:47 10° N 01:16:47 35° ENE 01:16:47 35° ENE
ATLAS 5 CENTAUR R/B 3.3 01:07:21 10° NW 01:18:22 58° NE 01:19:49 39° E
Cosmos 2278 Rocket 3.9 01:23:49 10° N 01:28:44 29° NE 01:33:37 10° ESE
CZ-2D R/B 2.8 01:24:52 10° NNE 01:30:01 44° E 01:30:34 42° ESE
Cosmos 1867 3.6 01:30:59 65° ESE 01:30:59 65° ESE 01:36:22 10° NE
SME Rocket 3.7 01:32:57 49° NE 01:32:57 49° NE 01:36:38 10° N
Cosmos 2333 Rocket 2.7 01:33:18 46° W 01:33:51 48° WNW 01:39:20 10° NNE
Cosmos 1125 Rocket 3.9 01:37:42 51° ESE 01:37:55 51° ESE 01:42:56 10° NNE
Cosmos 2322 3.9 01:40:26 55° W 01:41:02 58° WNW 01:46:41 10° NNE
SL-16 R/B 3.3 01:37:47 24° SE 01:41:18 48° ENE 01:47:14 10° N
Cosmos 1745 Rocket 3.9 01:36:14 10° N 01:42:31 86° W 01:43:37 63° S
Cosmos 1674 Rocket 4.1 01:43:30 52° NNW 01:43:30 52° NNW 01:47:03 10° N
Thor Agena Rocket 3.6 01:40:32 10° N 01:45:46 67° WNW 01:46:03 65° W
Cosmos 2298 Rocket 4.1 01:45:28 61° SE 01:45:51 63° ESE 01:51:06 10° NNE
USA 290 4.3 01:48:51 27° N 01:48:51 27° N 01:50:29 10° NNE
Cosmos 1980 4.3 01:46:55 42° SE 01:47:48 45° ESE 01:53:10 10° NE
Cosmos 2322 Rocket 4.4 01:47:02 11° WNW 01:49:34 15° NW 01:52:36 10° NNW
ATLAS CENTAUR R/B 1.7 01:47:47 10° NNW 01:52:17 76° NW 01:52:17 76° NW
Cosmos 1818 3.8 01:48:47 10° NW 01:53:24 52° W 01:53:24 52° W
SL-14 R/B 3.8 01:56:23 55° N 01:56:23 55° N 01:59:31 10° N
Cosmos 494 Rocket 4.0 01:52:53 10° NNW 01:58:01 74° ENE 01:59:08 54° SE
AQUA 4.3 01:54:16 10° NNE 01:58:54 49° E 01:59:34 46° SE
Okean 2 Rocket 4.5 01:56:02 10° NNW 01:58:57 28° WNW 01:58:57 28° WNW
Cosmos 1455 Rocket 4.4 01:57:15 10° N 02:01:23 36° ENE 02:03:00 27° ESE
Cosmos 1378 Rocket 4.4 02:02:46 38° WNW 02:02:46 38° WNW 02:06:25 10° N
Cosmos 1953 2.9 01:59:46 10° NNW 02:02:56 51° NW 02:02:56 51° NW
GP-B 3.1 02:00:34 10° N 02:04:48 69° WNW 02:04:48 69° WNW
Cosmos 371 Rocket 3.1 02:04:37 74° SSE 02:05:00 82° ESE 02:09:53 10° NNE
Meteor 1-16 Rocket 4.4 02:01:31 10° NNW 02:07:21 59° W 02:08:12 54° SW
Cosmos 883 Rocket 4.4 02:06:43 53° SSW 02:08:17 77° W 02:14:37 10° N
UNK 4.1 02:07:23 43° SE 02:08:37 61° ENE 02:13:09 10° N
EO 1 Delta rocket 4.5 02:06:50 10° N 02:11:09 41° WNW 02:11:18 41° W
NPP 3.6 02:06:28 10° NNE 02:11:54 88° ESE 02:13:05 56° SSW
USA 32 4.0 02:11:21 60° WSW 02:11:59 65° W 02:17:13 10° N
Cosmos 1975 Rocket 3.3 02:11:29 54° SE 02:12:01 59° E 02:16:23 10° NNE
USA 306 3.8 02:13:37 36° ESE 02:13:37 36° ESE 02:17:03 10° ENE
USA 307 4.1 02:13:44 31° ESE 02:13:44 31° ESE 02:17:04 10° ENE
CZ-4 R/B 3.7 02:10:53 10° N 02:15:30 66° WNW 02:15:53 62° WSW
Cosmos 468 4.3 02:11:23 10° NNW 02:16:37 76° WSW 02:17:38 57° S
Resurs 1-4 Rocket 2.2 02:14:09 10° N 02:19:21 64° WNW 02:20:23 52° WSW
Cosmos 2315 Rocket 4.0 02:18:05 47° SSW 02:20:00 73° W 02:26:24 10° N
Cosmos 2219 Rocket 3.5 02:20:54 23° W 02:22:35 26° NW 02:27:15 10° N
Cosmos 1437 Rocket 4.0 02:19:34 10° NNW 02:21:54 30° NW 02:21:54 30° NW
NOSS 0 Rocket 4.0 02:22:49 45° SW 02:24:47 72° WNW 02:31:03 10° NNE
NOSS 3-1 (A) 4.1 02:17:23 10° NW 02:25:08 89° ENE 02:34:07 10° SSE
SAR-Lupe-2 3.6 02:21:51 10° N 02:25:09 72° NNW 02:25:09 72° NNW
MOS 1 Rocket 3.1 02:26:10 48° SSE 02:27:18 77° ENE 02:31:36 10° N
FALCON 9 R/B 4.3 01:54:43 10° W 02:27:20 61° SSW 02:35:18 10° SE
COSMOS 2428 3.7 02:26:02 28° W 02:27:43 34° WNW 02:32:51 10° N
CZ-4C R/B 3.0 02:21:54 10° NW 02:29:28 80° WSW 02:38:08 10° SSE
Cosmos 304 Rocket 3.7 02:30:28 56° SSW 02:31:31 90° ESE 02:36:22 10° NNE
NOSS 3-1 (C) 4.3 02:28:55 10° NW 02:36:28 52° WSW 02:43:14 17° S
Cosmos 1709 Rocket 4.2 02:31:54 10° NNW 02:37:49 51° W 02:39:40 38° SW
Cosmos 2237 Rocket 2.2 02:39:10 41° SW 02:41:07 70° WNW 02:46:49 10° NNE
Cosmos 1025 Rocket 2.9 02:41:57 54° SSW 02:42:53 78° W 02:47:14 10° N
Cosmos 1455 3.7 02:39:45 10° NNE 02:43:08 32° ENE 02:45:55 13° SE
USA 308 3.0 02:42:41 52° S 02:43:18 59° SE 02:47:26 10° NE
Cosmos 2084 Rocket 4.5 02:43:24 27° SE 02:44:13 30° ESE 02:47:34 10° ENE
Cosmos 1544 Rocket 4.1 02:42:31 10° N 02:46:54 58° E 02:49:52 19° SSE
Cosmos 1300 3.8 02:43:53 10° NNW 02:46:40 30° WNW 02:46:40 30° WNW
ADEOS II 2.1 02:42:29 10° N 02:47:43 68° WNW 02:49:42 38° SW
Lacrosse 5 3.2 02:48:07 22° SSE 02:50:11 30° ESE 02:54:37 10° ENE
NOSS 2-2 (D) 4.4 02:48:03 10° NW 02:53:30 87° WSW 03:01:16 10° SSE
Cosmos 839 Rocket 4.2 02:49:42 10° NW 02:56:09 72° WSW 03:03:57 10° SSE
IDEFIX/ARIANE 42P 2.6 02:54:04 10° N 02:59:18 66° WNW 03:01:42 32° SW
Cosmos 1461 3.3 02:55:41 10° NW 02:59:37 40° WSW 02:59:38 40° WSW
Cosmos 332 Rocket 4.1 03:02:46 34° WSW 03:04:31 51° WNW 03:09:12 10° N
Meteor 2-10 Rocket 4.2 03:00:56 10° NNW 03:06:13 40° W 03:08:20 29° SW
CZ-2D R/B 3.5 03:05:28 10° NNW 03:09:45 25° WNW 03:11:53 19° W
USA 305 3.0 03:09:06 34° WSW 03:10:48 67° NW 03:14:58 10° NE
Cosmos 2278 Rocket 2.6 03:07:38 10° NW 03:12:55 41° WSW 03:16:04 22° SSW
Meteor 2-5 Rocket 4.1 03:10:05 27° SW 03:12:58 49° WNW 03:18:33 10° N
ERBS 1.9 03:14:11 52° SW 03:14:48 88° SSE 03:17:54 10° NE
Meteor 1-24 Rocket 4.0 03:13:15 26° SW 03:16:19 53° WNW 03:21:47 10° N
Nadezhda 1 Rocket 4.0 03:15:12 15° S 03:20:34 89° W 03:26:57 10° N
H-II Stage 2 4.2 03:03:57 10° W 03:21:23 33° SSW 03:25:40 10° SE
EO 1 Del DPAF 4.4 03:19:05 10° NNW 03:22:00 24° WNW 03:22:46 22° W
SL-16 R/B 2.2 03:20:09 21° SSW 03:24:02 88° ESE 03:29:45 10° NNE
SL-16 R/B 3.5 03:22:52 22° SW 03:25:05 27° W 03:30:13 10° NW
FENGYUN 3A 4.3 03:21:37 10° NNE 03:26:53 54° E 03:32:08 10° S
COSMOS 2455 3.6 03:23:19 12° S 03:28:37 49° ESE 03:34:24 10° NE
Cosmos 1943 Rocket 2.5 03:24:05 10° NNW 03:29:47 73° ENE 03:35:26 10° SSE
Cosmos 2369 Rocket 4.3 03:26:48 10° N 03:31:42 30° ENE 03:36:33 10° ESE
OE (NEXTSAT) 4.5 03:31:16 10° WNW 03:34:35 69° NNE 03:37:54 10° ESE
Cosmos 2154 Rocket 4.0 03:33:30 10° NNW 03:39:49 68° W 03:46:04 10° S
Helios 1A 4.3 03:39:26 19° WSW 03:40:32 21° W 03:43:47 10° NW
ARIANE 5 R/B 3.3 03:36:03 10° NNE 03:40:59 49° E 03:45:50 10° S
CBERS-1 4.0 03:36:12 10° N 03:41:17 69° WNW 03:45:43 14° SSW
Cosmos 1536 Rocket 3.8 03:38:45 19° SSW 03:41:47 51° W 03:46:06 10° N
Lacrosse 5 rocket 2.2 03:39:49 15° S 03:42:38 39° SE 03:46:26 10° ENE
IRS-1D 4.2 03:38:57 10° N 03:43:59 43° WNW 03:47:55 16° SW
IRS-1C 4.5 03:39:26 10° NNE 03:44:45 66° ESE 03:50:02 10° S
USA 229 DEB 4.5 03:42:22 10° NW 03:49:08 37° WSW 03:56:13 10° S
USA 229 4.4 03:42:27 10° NW 03:49:14 37° WSW 03:56:19 10° S
ALOS 2.4 03:46:33 10° NNE 03:51:13 77° ESE 03:55:52 10° S
USA 306 4.0 03:49:21 12° W 03:52:47 35° NNW 03:56:39 10° NE
USA 307 3.8 03:49:30 13° W 03:52:51 39° NNW 03:56:50 10° NE
MOS 1-B Rocket 3.8 03:50:16 10° S 03:56:00 68° WSW 04:01:36 10° NNW
Cosmos 1271 Rocket 2.7 03:53:13 10° NNW 03:56:57 59° W 04:00:43 10° S
Meteor 1-29 3.3 03:54:46 10° NNE 03:58:00 60° ESE 04:01:11 10° S
Helios 1B rocket 3.0 03:58:20 10° N 04:02:09 40° WNW 04:05:44 11° SW
Cosmos 2228 3.1 04:02:41 10° NNW 04:07:01 59° W 04:11:16 10° S
ATLAS 2A CENTAUR R/B 4.4 03:59:39 10° SW 04:07:19 20° S 04:11:43 10° SE
Cosmos 1606 Rocket 3.5 04:05:57 10° N 04:10:25 85° W 04:14:48 10° S
SeaSat 1 2.5 04:05:44 10° NNE 04:10:39 72° WNW 04:15:33 10° SW
CZ-2C R/B 2.6 04:09:32 10° N 04:14:40 66° WNW 04:19:40 10° SSW
Meteor 1-21 Rocket 4.3 04:09:42 10° SSW 04:15:21 63° WNW 04:20:56 10° N
CZ-4C R/B 4.3 04:12:29 10° WNW 04:17:25 18° WSW 04:22:39 10° SW
Cosmos 1455 4.0 04:16:19 10° NW 04:18:16 14° W 04:20:13 10° WSW
Cosmos 1703 4.4 04:17:50 10° SW 04:21:13 27° WNW 04:24:35 10° NNW
USA 308 4.4 04:19:36 10° W 04:23:11 27° NNW 04:26:46 10° NNE
Cosmos 1943 3.5 04:19:14 10° SSW 04:24:53 72° ESE 04:30:35 10° NNE
IRS-P3 4.3 04:20:08 10° N 04:25:23 59° WNW 04:30:36 10° SSW
Cosmos 2218 Rocket 4.1 04:19:09 10° N 04:25:23 89° E 04:31:40 10° S
Cosmos 2237 Rocket 4.3 04:24:11 10° WNW 04:26:16 12° NW 04:28:22 10° NNW
DEBRIS 4.2 04:30:50 10° WNW 04:37:21 42° NNE 04:39:58 10° E
